Puerto Plata, Dominican Republic

12:27 PM AST on December 07, 2016 (GMT -0400)
Gregorio Luperon International

Weather History for MDPP - October, 2012

Change the Weather History Date:

Thursday, October 4, 2012

  Actual Average Record
Temperature  
Mean Temperature 81 °F -  
Max Temperature 90 °F 87 °F 93 °F (2006)
Min Temperature 72 °F 74 °F 69 °F (1998)
Cooling Degree Days 16    
Growing Degree Days 31 (Base 50)    
Moisture  
Dew Point 75 °F    
Average Humidity 76    
Maximum Humidity 100    
Minimum Humidity 56    
Precipitation  
Precipitation 0.35 in - - ()
Sea Level Pressure  
Sea Level Pressure 30.02 in    
Wind  
Wind Speed 4 mph ()    
Max Wind Speed 18 mph    
Max Gust Speed -    
Visibility 7.2 miles    
Events Rain    
Averages and records for this station are not official NWS values.
T = Trace of Precipitation, MM = Missing Value Source: Averaged Metar Reports

Daily Weather History Graph

Daily Weather History Graph

Search for Another Location

Airport or City:

Trip Planner

Search our weather history database for the weather conditions in past years. The results will help you decide how hot, cold, wet, or windy it might be!

Date:

Astronomy

Oct. 04, 2012 Rise Set
Actual Time 6:33 AM AST 6:27 PM AST
Civil Twilight 6:11 AM AST 6:49 PM AST
Nautical Twilight 5:46 AM AST 7:14 PM AST
Astronomical Twilight 5:20 AM AST 7:40 PM AST
Moon 9:35 PM AST (10/4) 10:13 AM AST (10/4)
Length of Visible Light 12h 37m
Length of Day
11h 53m
Waning Gibbous, 82% of the Moon is Illuminated
Oct 4
Waning Gibbous
Oct 8
Last Quarter
Oct 15
New
Oct 21
First Quarter
Oct 29
Full

Hourly Weather History & Observations

Time (AST) Temp. Heat Index Dew Point Humidity Pressure Visibility Wind Dir Wind Speed Gust Speed Precip Events Conditions
2:00 AM 77 °F - 74 °F 87% 30.09 in 10 mi Calm Calm - - Rain Light Rain
2:00 AM 77.0 °F - 73.4 °F 89% 30.06 in 6.2 mi Calm Calm - N/A   Partly Cloudy
5:00 AM 75 °F - 74 °F 98% 30.06 in 10 mi Calm Calm - - Rain Light Rain
5:00 AM 75.2 °F - 75.2 °F 100% 30.04 in 6.2 mi Calm Calm - N/A   Mostly Cloudy
8:00 AM 77 °F - 75 °F 92% 30.07 in 10 mi Calm Calm - -   Partly Cloudy
8:00 AM 77.0 °F - 75.2 °F 94% 30.06 in 6.2 mi Calm Calm - N/A   Scattered Clouds
9:00 AM 84.2 °F 96.1 °F 78.8 °F 84% 30.06 in 6.2 mi Calm Calm - N/A   Scattered Clouds
10:00 AM 86.0 °F 96.9 °F 77.0 °F 74% 30.04 in 6.2 mi SSE 6.9 mph - N/A   Partly Cloudy
11:00 AM 88 °F - 76 °F 60% 30.07 in 10 mi East 11.2 mph - -   Partly Cloudy
11:00 AM 87.8 °F 97.6 °F 75.2 °F 66% 30.04 in 6.2 mi East 11.5 mph - N/A   Scattered Clouds
12:00 PM 89.6 °F 99.8 °F 75.2 °F 62% 30.04 in 6.2 mi East 11.5 mph - N/A   Partly Cloudy
1:00 PM 89.6 °F 102.2 °F 77.0 °F 66% 30.01 in 6.2 mi ENE 13.8 mph - N/A   Partly Cloudy
2:00 PM 89.6 °F 102.2 °F 77.0 °F 66% 29.98 in 6.2 mi East 11.5 mph - N/A   Partly Cloudy
3:00 PM 89.6 °F 99.8 °F 75.2 °F 62% 29.98 in 6.2 mi ENE 18.4 mph - N/A   Partly Cloudy
4:00 PM 89.6 °F 99.8 °F 75.2 °F 62% 29.95 in 6.2 mi ENE 17.3 mph - N/A   Partly Cloudy
5:00 PM 89 °F - 75 °F 56% 29.96 in 10 mi East 13.4 mph - -   Scattered Clouds
5:00 PM 89.6 °F 99.8 °F 75.2 °F 62% 29.95 in 6.2 mi East 13.8 mph - N/A   Partly Cloudy
6:00 PM 87.8 °F 97.6 °F 75.2 °F 66% 29.98 in 6.2 mi East 12.7 mph - N/A   Partly Cloudy
7:00 PM 84.2 °F 92.3 °F 75.2 °F 74% 29.98 in 6.2 mi East 4.6 mph - N/A   Partly Cloudy
8:00 PM 82 °F - 76 °F 76% 29.98 in 10 mi Calm Calm - -   Partly Cloudy
8:00 PM 82.4 °F 89.5 °F 75.2 °F 79% 29.98 in 6.2 mi Calm Calm - N/A   Scattered Clouds
11:00 PM 78.8 °F - 75.2 °F 89% 30.01 in 6.2 mi Calm Calm - N/A   Mostly Cloudy